arxmliv
arxmliv build tool
 
KWARC group
LaTeXML
About
   
 

Detailed info

Back to Homepage

List of missing_macros

No. Date Filename num_warningnum_errornum_xmargok_xmargnum_xmathok_xmathMissing macros
149201 2013-03-02 01:50:28 /0208/math.0208138 1840000[Align, \xyoption, \xymatrix, \ar].
149202 2013-03-02 01:50:16 /0208/math.0208133 2610000[\the\fnum].
149203 2013-03-02 01:50:10 /0208/math.0208148 1130000[\qua, \nl, \agt, \thesecondaryclass, \theprimaryclass, \thetitle, \keywords, \stdspace, \theabstract, \primaryclass, \Addresses, \thekeywords, \theauthors].
149204 2013-03-02 01:49:50 /0208/math.0208113 71440000[{\bib}].
149205 2013-03-02 01:49:35 /0208/math.0208122 5040000[Align, \xymatrix, \ar]; 1 missing file[xy.sty].
149206 2013-03-02 01:49:25 /0208/math.0208135 15320000[\nl, \qua, \theurl, \!xleft, \stdspace, \theaddress, \address, \circulararc, \setcoordinatesystem, \thekeywords, \theauthors, \plotsymbolspacing, \nocolon, \!ybot, \MR, \mailto, \setplotsymbol, \theemail, \!picbox, \thesecondaryclass, \theprimaryclass, \
149207 2013-03-02 01:49:24 /0208/math.0208107 11240000[\sssize, Align, \xymatrix, \ar].
149208 2013-03-02 01:49:19 /0208/math.0208129 2130000[\Rn].
149209 2013-03-02 01:48:56 /0208/math.0208124 540000[\copyrightnotice, \address, \cutpage, \addressemail].
149210 2013-03-02 01:48:46 /0208/math.0208119 910000[\psfrag].
149211 2013-03-02 01:48:45 /0208/math.0208116 1610000[{comment}].
149212 2013-03-02 01:48:34 /0208/math.0208112 18110000[\dTo, Align, \diagramstyle, \lTo, \rTo, {diagram}]; 1 missing file[diagrams].
149213 2013-03-02 01:48:18 /0208/math.0208130 8220000[\shortciteN, \Qlb, \Qct, \citeANP, \Qcb, \FRAME].
149214 2013-03-02 01:48:11 /0208/math.0208118 270000[Align, \xyoption, \SelectTips, \xymatrix, \ar, \CompileMatrices]; 1 missing file[xy.sty].
149215 2013-03-02 01:47:43 /0208/math.0208102 310000[\psfrag].
149216 2013-03-02 01:47:41 /0208/math.0208106 16180000[Align, \arc, \xymatrix, \ar]; 1 missing file[xy.sty].
149217 2013-03-02 01:47:34 /0208/math.0208104 2120000[\setzero]; 1 missing file[Latex-document.sty].
149218 2013-03-02 01:47:30 /0208/math.0208068 6850000[Align, \xymatrix, \ar, \CompileMatrices]; 1 missing file[xy.sty].
149219 2013-03-02 01:47:19 /0208/math.0208110 010000[\psfrag].
149220 2013-03-02 01:47:13 /0208/math.0208092 28280000[\qua, \co, \nl, \theurl, \!xleft, \stdspace, \theaddress, \circulararc, \setcoordinatesystem, \thekeywords, \theauthors, \plotsymbolspacing, \nocolon, \!ybot, \setplotsymbol, \theemail, \!picbox, \thesecondaryclass, \theprimaryclass, \keywords, \!xright,
149221 2013-03-02 01:47:05 /0208/math.0208091 51350000[Align, \\, \xymatrix, \ar]; 9 missing files[xycurve.sty, xymatrix.sty, xyline.sty, xyarrow.sty, xycmtip.sty, xycolor.sty, xyrotate.sty, xyframe.sty, xygraph.sty].
149222 2013-03-02 01:47:00 /0208/math.0208096 10430000[\@ifnotempty, \xymatrix, \ar]; 1 missing file[xy.sty].
149223 2013-03-02 01:46:59 /0208/math.0208093 420000[\urladdr, \email].
149224 2013-03-02 01:46:58 /0208/math.0208100 7410000[\the\fnum].
149225 2013-03-02 01:46:54 /0208/math.0208098 2210000[\arc].
149226 2013-03-02 01:46:35 /0208/math.0208065 9960000[Align, \xymatrix, \ar]; 1 missing file[xy.sty].
149227 2013-03-02 01:45:52 /0208/math.0208072 4730000[\title, \date].
149228 2013-03-02 01:45:07 /0208/math.0208073 14130000[\setzero]; 1 missing file[Latex-document.sty].
149229 2013-03-02 01:44:43 /0208/math.0208080 480000[Align, \xymatrix, \newdir, \ar, \CompileMatrices]; 1 missing file[xy.sty].
149230 2013-03-02 01:44:30 /0208/math.0208063 8290000[\co, \qua, \nl, \theurl, \!xleft, \stdspace, \theaddress, \circulararc, \secondemail, \setcoordinatesystem, \thekeywords, \theauthors, \plotsymbolspacing, \!ybot, \setplotsymbol, \theemail, \!picbox, \thesecondaryclass, \theprimaryclass, \secondaddress,
149231 2013-03-02 01:43:16 /0208/math.0208027 3760000[Align, \xymatrix, \rrbracket, \ar, \llbracket]; 1 missing file[xy.sty].
149232 2013-03-02 01:43:11 /0208/math.0208035 2320000[Align, {comment}].
149233 2013-03-02 01:43:10 /0208/math.0208040 2070000[\topmargin, \oddsidemargin].
149234 2013-03-02 01:43:08 /0208/math.0208056 130000[\psfig].
149235 2013-03-02 01:42:27 /0208/math.0208047 17220000[\@esphack, \@bsphack].
149236 2013-03-02 01:41:35 /0208/math.0208038 110000[\theappendix].
149237 2013-03-02 01:41:33 /0208/math.0208036 330000[\@volume].
149238 2013-03-02 01:41:13 /0208/math.0208030 1930000[Align, \xymatrix, \ar].
149239 2013-03-02 01:41:13 /0208/math.0208039 0140000[\qua, \nl, \agt, \thesecondaryclass, \theprimaryclass, \thetitle, \keywords, \theabstract, \stdspace, \secondaryclass, \primaryclass, \Addresses, \thekeywords, \theauthors].
149240 2013-03-02 01:41:11 /0208/math.0208021 8910000[\Arrowvert].
149241 2013-03-02 01:40:50 /0208/math.0208019 1630000[\examplename].
149242 2013-03-02 01:40:11 /0208/math-ph.0208039 3950000[{lemma}, {theorem}, {AMS}, \endproof, {proof}].
149243 2013-03-02 01:40:05 /0208/math.0208006 4190000[\bezier].
149244 2013-03-02 01:39:47 /0208/math.0208020 010000[\Section].
149245 2013-03-02 01:39:30 /0208/math-ph.0208041 1210000[\bezier].
149246 2013-03-02 01:39:13 /0208/math-ph.0208040 3210000[\citen].
149247 2013-03-02 01:39:07 /0208/math-ph.0208042 1720000[Align, \+].
149248 2013-03-02 01:38:52 /0208/math-ph.0208047 1220000[Align, \+].
149249 2013-03-02 01:38:49 /0208/math-ph.0208043 5100000[\FirstPageHead, \JNMPnumberwithin, \Name, \copyrightnote, \Address, \Date, \Author].
149250 2013-03-02 01:38:35 /0208/math-ph.0208020 29270000[\at, \Diff, {theorem}, \N, \cA, \C, {example}, \Obj, \cC, \Z, {remark}, \id, \End, \cZ, {proposition}, \clos, \cS, \R, \Aut, {corollary}, \cU, \im, {topic}, \supp].
149251 2013-03-02 01:38:20 /0208/math-ph.0208032 440000[{sideways}]; 1 missing file[graphpap.sty].
149252 2013-03-02 01:38:09 /0208/math-ph.0208029 320000[\foilhead, \MyLogo]; 1 missing file[foils.cls].
149253 2013-03-02 01:37:47 /0208/math-ph.0208037 920000[{definition}, {theorem}].
149254 2013-03-02 01:36:41 /0208/hep-th.0208231 102200000[\psfrag].
149255 2013-03-02 01:36:24 /0208/math-ph.0208018 155840000[\chapterauthors].
149256 2013-03-02 01:35:16 /0208/math-ph.0208004 1020000[\@doendpe, \@@par].
149257 2013-03-02 01:34:30 /0208/math-ph.0208008 1150000[Align, \xyoption, \xymatrix, \ar]; 1 missing file[xy.sty].
149258 2013-03-02 01:34:25 /0208/hep-th.0208228 2660000[\yng, \dottedline, \texture, \mathinner, \shade, \young].
149259 2013-03-02 01:34:24 /0208/hep-th.0208222 5470000[\@car, \@whilenum, \abstracts, \@nil, \tbl, \do]; 1 missing file[ws.sty].
149260 2013-03-02 01:31:51 /0208/hep-th.0208207 1850000[{centering}].
149261 2013-03-02 01:31:13 /0208/hep-th.0208208 340000[\Blue, \CarnationPink, \Red]; 1 missing file[colordvi.sty].
149262 2013-03-02 01:31:12 /0208/hep-th.0208195 3010000[\psfrag].
149263 2013-03-02 01:31:05 /0208/hep-th.0208200 5310000[\bezier].
149264 2013-03-02 01:29:33 /0208/hep-th.0208186 1920000[\bezier, \dashline].
149265 2013-03-02 01:29:18 /0208/hep-th.0208175 3150000[\ArrowArc, \Text, \ArrowLine, \Line, \CArc].
149266 2013-03-02 01:28:46 /0208/hep-th.0208189 8710000[\underset].
149267 2013-03-02 01:27:35 /0208/hep-th.0208166 2850000[{centering}].
149268 2013-03-02 01:27:24 /0208/hep-th.0208164 830000[\binom, \Qcb, \FRAME].
149269 2013-03-02 01:25:20 /0208/hep-th.0208144 5910000[\QTR].
149270 2013-03-02 01:23:36 /0208/hep-th.0208145 7310000[\fieldR].
149271 2013-03-02 01:15:44 /0208/hep-th.0208107 25950000[\copyrightnotice, \address, \url, \cutpage, \addressemail].
149272 2013-03-02 01:14:57 /0208/hep-th.0208104 3120000[Align, \xymatrix, \ar]; 9 missing files[xycurve.sty, xymatrix.sty, xyline.sty, xyarrow.sty, xycmtip.sty, xycolor.sty, xyrotate.sty, xyframe.sty, xygraph.sty].
149273 2013-03-02 01:14:53 /0208/hep-th.0208117 1110000[\pacs, \pagerange]; 1 missing file[ActaStyle.cls].
149274 2013-03-02 01:14:22 /0208/hep-th.0208108 14840000[Align, \xymatrix, \ar]; 1 missing file[xy.sty].
149275 2013-03-02 01:13:44 /0208/hep-th.0208105 13610000[\@@underline].
149276 2013-03-02 01:12:31 /0208/hep-th.0208082 417350000[\slabel, Align, {subeqnarray}, \citen].
149277 2013-03-02 01:11:08 /0208/hep-th.0208079 6210000[\citen].
149278 2013-03-02 01:08:24 /0208/hep-th.0208058 118790000[\@open@row, \multiframe, \@close@row, \xymatrix, \ar, \SilentMatrices]; 2 missing files[xy.sty, multibox.sty].
149279 2013-03-02 01:06:52 /0208/hep-th.0208035 1120000[\emline, \bezier].
149280 2013-03-02 01:06:08 /0208/hep-th.0208021 1180000[\includegraphics, \epsfbox, \abstracts, \psfig, \epsfxsize]; 1 missing file[ws.sty].
149281 2013-03-02 01:04:53 /0208/hep-th.0208027 040000[\extrasenglish, \dateenglish, \captionsenglish]; 1 missing file[pslatex.sty].
149282 2013-03-02 01:03:58 /0208/hep-th.0208001 8520000[\textfrak]; 1 missing file[oldgerm.sty].
149283 2013-03-02 01:03:54 /0208/hep-th.0208002 32160000[\BCirc, \ArrowArc, \Line, \Photon, \GBoxc, \ArrowLine, \Vertex, \Text, \GCirc, \SetWidth, \LongArrow, \CArc, \ZigZag, \PhotonArc].
149284 2013-03-02 01:03:01 /0208/hep-ph.0208203 16220000[\fancyplain, \@cite].
149285 2013-03-02 01:02:56 /0208/hep-ph.0208270 040000[\epsfbox, \abstracts, \epsfxsize]; 1 missing file[ws.sty].
149286 2013-03-02 01:02:43 /0208/hep-ph.0208260 1420000[\abstracts]; 1 missing file[ws.sty].
149287 2013-03-02 01:02:28 /0208/hep-ph.0208209 64930000[Align, {eqaligntwo}].
149288 2013-03-02 01:02:25 /0208/hep-ph.0208268 180000[\DashArrowLine, \Text, \Vertex, \ArrowLine, \SetScale, \SetOffset, \DashArrowArc, \DashLine].
149289 2013-03-02 01:01:58 /0208/hep-ph.0208255 210000[{centering}].
149290 2013-03-02 01:01:55 /0208/hep-ph.0208252 210000[\slashed].
149291 2013-03-02 01:01:06 /0208/hep-ph.0208228 2510000[\hepph].
149292 2013-03-02 01:01:01 /0208/hep-ph.0208244 2310000[\acknowledgement].
149293 2013-03-02 01:00:46 /0208/hep-ph.0208223 3210000[\@ignoretrue].
149294 2013-03-02 01:00:31 /0208/hep-ph.0208233 1330000[{sideways}].
149295 2013-03-02 01:00:05 /0208/hep-ph.0208238 220000[\PACS]; 1 missing file[size11.clo.sty].
149296 2013-03-02 00:59:55 /0208/hep-ph.0208214 9020000[\afterpage]; 1 missing file[afterpage.sty].
149297 2013-03-02 00:59:15 /0208/hep-ph.0208218 18110000[\MVAt]; 1 missing file[marvosym.sty].
149298 2013-03-02 00:58:59 /0208/hep-ph.0208202 4110000[\@cite].
149299 2013-03-02 00:58:57 /0208/hep-ph.0208213 280000[\epsfbox, \abstracts, \epsfxsize]; 1 missing file[ws.sty].
149300 2013-03-02 00:57:53 /0208/hep-ph.0208190 640000[\epsfbox, \abstracts, \epsfxsize]; 1 missing file[ws.sty].
149301 2013-03-02 00:57:13 /0208/hep-ph.0208179 1250000[\Braket, \bbsymbol, \accentset]; 3 missing files[BetterCite.sty, MyBbol.sty, scrartcl.cls].
149302 2013-03-02 00:57:13 /0208/hep-ph.0208180 090000[\gtrsim, \lesssim, \abstracts, \epsffile, \epsfxsize]; 1 missing file[ws.sty].
149303 2013-03-02 00:56:02 /0208/hep-ph.0208176 1950000[\FAVert, \FADiagram, {feynartspicture}, \FALabel, \FAProp].
149304 2013-03-02 00:55:39 /0208/hep-ph.0208166 1810000[\theappendix].
149305 2013-03-02 00:55:09 /0208/hep-ph.0208164 220000[\abstracts]; 1 missing file[ws.sty].
149306 2013-03-02 00:54:25 /0208/hep-ph.0208139 4160000[{fmffile}, \fmfrightn, \fmf, \fmfv, \fmfframe, {fmfgraph*}, \fmfleftn, \fmfforce, \fmfstraight].
149307 2013-03-02 00:54:05 /0208/hep-ph.0208154 320000[\preprint]; 1 missing file[size11.clo.sty].
149308 2013-03-02 00:52:37 /0208/hep-ph.0208110 3280000[{fmffile}, \fmf, \fmfcmd, \fmftop, \fmfdot, \fmfpen, {fmfgraph*}, \fmfforce, \fmfleft, \fmfright].
149309 2013-03-02 00:52:33 /0208/hep-ph.0208136 030000[\accentset]; 2 missing files[BetterCite.sty, MyBbol.sty].
149310 2013-03-02 00:52:31 /0208/hep-ph.0208068 2850000[\extrasspanish, \datespanish, \fancyplain, \noextrasspanish, \captionsspanish].
149311 2013-03-02 00:52:26 /0208/hep-ph.0208135 040000[\@affiliation, \etal].
149312 2013-03-02 00:51:22 /0208/hep-ph.0208127 10250000[\abstracts, \epsfig]; 1 missing file[ws.sty].
149313 2013-03-02 00:51:12 /0208/hep-ph.0208109 350000[\epsfbox, \abstracts, \rotatebox, \epsfxsize]; 1 missing file[ws.sty].
149314 2013-03-02 00:50:40 /0208/hep-ph.0208102 2730000[\theappendix].
149315 2013-03-02 00:49:42 /0208/hep-ph.0208078 8410000[\firstfigfalse].
149316 2013-03-02 00:49:32 /0208/hep-ph.0208093 1540000[\authorinfo, \skiplinehalf, \keywords, \supit]; 1 missing file[spie.cls].
149317 2013-03-02 00:49:23 /0208/hep-ph.0208092 350000[\epsfbox, \abstracts, \epsfxsize]; 1 missing file[ws.sty].
149318 2013-03-02 00:49:03 /0208/hep-ph.0208097 050000[\Text, \Line, \ArrowLine, \DashCArc, \DashArrowLine].
149319 2013-03-02 00:48:36 /0208/hep-ph.0208086 7830000[\inst, \PACS, \institute].
149320 2013-03-02 00:48:11 /0208/hep-ph.0208058 960000[\BCirc, \Line, \Text, \DashLine].
149321 2013-03-02 00:47:14 /0208/hep-ph.0208075 4120000[\psfrag, \setmarginsrb].
149322 2013-03-02 00:47:07 /0208/hep-ph.0208076 750000[\ArrowArc, \ArrowLine, \Text, \Photon, \DashLine].
149323 2013-03-02 00:46:52 /0208/hep-ph.0208061 270000[\psfrag].
149324 2013-03-02 00:45:37 /0208/hep-ph.0208056 1360000[\Text, \Vertex, \ArrowLine, \Line, \LongArrow, \Gluon].
149325 2013-03-02 00:45:35 /0208/hep-ph.0208055 3110000[\epsffileline].
149326 2013-03-02 00:43:51 /0208/hep-lat.0208007 32350000[\GBoxc, \Text, \GCirc, \ArrowLine, \Oval].
149327 2013-03-02 00:43:02 /0208/hep-ph.0208020 120000[\PACS]; 1 missing file[size11.clo.sty].
149328 2013-03-02 00:43:02 /0208/hep-ph.0208024 150000[\TITLE, \BY, \IN, \SAME, \acknowledgments].
149329 2013-03-02 00:42:50 /0208/hep-ph.0208023 470000[\includegraphics, \abstracts]; 1 missing file[ws.sty].
149330 2013-03-02 00:42:17 /0208/hep-ph.0208015 3120000[\abstracts]; 1 missing file[ws.sty].
149331 2013-03-02 00:42:00 /0208/hep-ph.0208002 450000[\@open@row, \3].
149332 2013-03-02 00:41:39 /0208/hep-ph.0208013 1130000[\epsfbox, \epsfxsize]; 1 missing file[notebook.sty].
149333 2013-03-02 00:41:08 /0208/hep-lat.0208078 1410000[\geometry].
149334 2013-03-02 00:40:57 /0208/hep-ph.0208003 640000[\Text, \ArrowLine, \DashLine, \DashArrowLine].
149335 2013-03-02 00:39:28 /0208/hep-lat.0208039 4020000[{sidewaystable}].
149336 2013-03-02 00:39:27 /0208/hep-lat.0208052 5120000[\be, \ee, \trans, \fig, \Sg]; 1 missing file[macros.sty].
149337 2013-03-02 00:39:18 /0208/hep-lat.0208047 51190000[\psfull, \psfig]; 1 missing file[psfig].
149338 2013-03-02 00:36:18 /0208/hep-ex.0208049 620000[\Red]; 1 missing file[colordvi.sty].
149339 2013-03-02 00:35:46 /0208/hep-ex.0208042 19560000[\preprint, \epemtoqqg, \Lep, \hZ, {mcbibliography}, \epemtoZZ, \TeV, \pb, \epemtoWW, \Z, \hA, \epem, \tanb, \etal, \A, \bigH, \journalname, \epemtotautau, \h, \submitted, \GeV, \citet]; 3 missing files[higgs_input.sty, Lep.sty, l3_title.sty].
149340 2013-03-02 00:34:51 /0208/hep-ex.0208032 920000[\includegraphics, \resizebox].
149341 2013-03-02 00:34:42 /0208/hep-ex.0208031 030000[\eg, \ie]; 1 missing file[size11.clo.sty].
149342 2013-03-02 00:34:35 /0208/hep-ex.0208018 3910000[\smaller].
149343 2013-03-02 00:34:34 /0208/hep-ex.0208023 9340000[\ifzbstpl, \lesssim, \makezeustitle, \psfig, \ifzbstnp, \ifzbstepj, \prepnum, \ifzdrftbst, \includegraphics, \ifzeusbst, \gtrsim]; 1 missing file[./LaTeX/zeus/zeus_paper.cls].
149344 2013-03-02 00:34:11 /0208/hep-ex.0208021 110000[\institute].
149345 2013-03-02 00:34:09 /0208/hep-ex.0208009 18130000[{Authlist}, \docnum, \submitted]; 1 missing file[cernart.cls].
149346 2013-03-02 00:34:09 /0208/hep-ex.0208022 410000[\institute].
149347 2013-03-02 00:34:06 /0208/hep-ex.0208025 16590000[\Pbkg, \ks, \pB, \ztag, \taubz, \Dz, Align, \Rbkg, \pip, \pim, \Dt, \fcp, \dE, \Nrec, \Nsf, \Nof, \piz, \Pol, \bz, \jpsi, {align}, \bzb, \Psig, \km, \Nev, \kstarz, \Ebeam, \kl, \fol, \sinbb, \zcp, \eeff, \kp, \ftag, \Rsig, \dM, \EB, \fsig, \ttag, \tcp, \
149348 2013-03-02 00:33:42 /0208/hep-ex.0208013 29190000[\epsfbox, \epsfxsize].
149349 2013-03-02 00:33:00 /0208/hep-ex.0208005 710000[\institute].
149350 2013-03-02 00:32:53 /0208/hep-ex.0208003 1530000[\Qlb, \Qcb, \FRAME].
149351 2013-03-02 00:31:37 /0208/gr-qc.0208061 1140000[\catchline, \pub, \keywords]; 1 missing file[ws.sty].
149352 2013-03-02 00:30:23 /0208/gr-qc.0208019 136650000[\psfrag].
149353 2013-03-02 00:29:59 /0208/gr-qc.0208031 3110000[\bezier].
149354 2013-03-02 00:29:29 /0208/gr-qc.0208010 41760000[Align, {xy}, \xypolynode, \xymatrix, \labelmargin, \ar, \xygraph]; 9 missing files[xycurve.sty, xymatrix.sty, xyline.sty, xyarrow.sty, xycmtip.sty, xycolor.sty, xyrotate.sty, xyframe.sty, xygraph.sty].
149355 2013-03-02 00:29:07 /0208/cs.0208041 3810000[\@definecounter].
149356 2013-03-02 00:28:36 /0208/cs.0208027 361100000[{definition}, \category, {received}, \terms, \newdef, {bottomstuff}, \keywords]; 1 missing file[acmtrans2m.cls].
149357 2013-03-02 00:28:15 /0208/cs.0208028 5460000[\citeyear].
149358 2013-03-02 00:28:07 /0208/gr-qc.0208004 22250000[\Magenta, \Green]; 1 missing file[blackdvi.sty].
149359 2013-03-02 00:27:49 /0208/cs.0208006 1910000[\theappendix].
149360 2013-03-02 00:27:42 /0208/cs.0208009 7660000[\theappendix, \harvarditem, \jdate, \pagerange, \pubyear, \volume]; 1 missing file[tlp.cls].
149361 2013-03-02 00:27:40 /0208/cs.0208029 1110000[{oz2texdisplay}, \citename, \figrule, \OzChar, \OzKeyword, \OzSpace, \OzEol, \OzInline, \OzEolComment]; 3 missing files[tlp.cls, aopmath.sty, oz2tex.sty].
149362 2013-03-02 00:27:36 /0208/cs.0208017 030000[\extrasenglish, \dateenglish, \captionsenglish].
149363 2013-03-02 00:27:05 /0208/cs.0208034 2040000[\citeyear, \psfig]; 1 missing file[psfig].
149364 2013-03-02 00:27:02 /0208/cs.0208008 102200000[{received}, \terms, {acks}, {bottomstuff}, \keywords, {definition}, \category, \newdef, {proof}, {acmtable}]; 1 missing file[acmtrans2m.cls].
149365 2013-03-02 00:26:46 /0208/cs.0208005 4910000[\psfrag].
149366 2013-03-02 00:26:42 /0208/cond-mat.0208597 31190000[\nl, \affil, {article}, \authoraddr, \acknowledgments, \startdata, \reference, {references}, \colhead, \tablenum, \tablehead, \tablewidth, Align, \righthead, \tablecaption, {planotable}, \lefthead]; 2 missing files[agupp.sty, update.tex].
149367 2013-03-02 00:26:24 /0208/cond-mat.0208595 820000[\PACS]; 1 missing file[size11.clo.sty].
149368 2013-03-02 00:25:07 /0208/cond-mat.0208554 2730000[\psfrag].
149369 2013-03-02 00:24:59 /0208/cond-mat.0208564 420000[\layoutstyle]; 1 missing file[{aipcheck}].
149370 2013-03-02 00:24:56 /0208/cond-mat.0208563 220000[\layoutstyle]; 1 missing file[{aipcheck}].
149371 2013-03-02 00:24:54 /0208/cond-mat.0208565 220000[\layoutstyle]; 1 missing file[{aipcheck}].
149372 2013-03-02 00:23:05 /0208/cond-mat.0208521 9100000[\pacs, \institute, \Date, \euro, \shorttitle, \epsfbox, \Pacs, \epsfxsize]; 1 missing file[EuroPhys.sty].
149373 2013-03-02 00:22:06 /0208/cond-mat.0208502 660000[\theappendix, \extrasenglish, \dateenglish, \captionsenglish].
149374 2013-03-02 00:21:46 /0208/cond-mat.0208488 5160000[\psfrag]; 1 missing file[IEEEtran_v15.cls].
149375 2013-03-02 00:21:26 /0208/cond-mat.0208490 730000[\address, \runninghead]; 1 missing file[jltp.sty].
149376 2013-03-02 00:21:21 /0208/cond-mat.0208491 010000[\psfrag].
149377 2013-03-02 00:21:18 /0208/cond-mat.0208493 110000[\psfrag].
149378 2013-03-02 00:20:01 /0208/cond-mat.0208470 2470000[\dates, \mailingone, \affiliationone, \volnumpagesyear, \h, \authorsone, \keywords]; 1 missing file[newFNLstyle.cls].
149379 2013-03-02 00:19:45 /0208/cond-mat.0208455 2410000[\toctitle].
149380 2013-03-02 00:19:36 /0208/cond-mat.0208446 8450000[\theappendix].
149381 2013-03-02 00:19:32 /0208/cond-mat.0208453 020000[\twoauthors]; 1 missing file[conf.sty].
149382 2013-03-02 00:19:10 /0208/cond-mat.0208441 13240000[Align, {subeqnarray}].
149383 2013-03-02 00:19:03 /0208/cond-mat.0208449 640000[\extrasenglish, \geometry, \dateenglish, \captionsenglish].
149384 2013-03-02 00:18:29 /0208/cond-mat.0208429 6110000[\lightning].
149385 2013-03-02 00:17:28 /0208/cond-mat.0208413 2580000[\reference, \righthead, {references}, {article}, \authoraddr, \acknowledgments, \lefthead]; 1 missing file[agupp.sty].
149386 2013-03-02 00:17:25 /0208/cond-mat.0208427 210000[\psfrag].
149387 2013-03-02 00:16:23 /0208/cond-mat.0208401 010000[Align].
149388 2013-03-02 00:16:21 /0208/cond-mat.0208361 16130000[\psfrag].
149389 2013-03-02 00:15:31 /0208/cond-mat.0208378 930000[\@affiliation].
149390 2013-03-02 00:14:56 /0208/cond-mat.0208387 010000[\psfrag].
149391 2013-03-02 00:14:36 /0208/cond-mat.0208371 1260000[\@affiliation, \acknowledgments].
149392 2013-03-02 00:14:08 /0208/cond-mat.0208366 060000[\nicefrac, \extrasenglish, {comment}, \geometry, \dateenglish, \captionsenglish].
149393 2013-03-02 00:13:58 /0208/cond-mat.0208358 220000[\PACS]; 1 missing file[size11.clo.sty].
149394 2013-03-02 00:13:53 /0208/cond-mat.0208359 030000[\extrasenglish, \dateenglish, \captionsenglish].
149395 2013-03-02 00:13:50 /0208/cond-mat.0208364 030000[\extrasenglish, \dateenglish, \captionsenglish].
149396 2013-03-02 00:13:25 /0208/cond-mat.0208343 1320000[\psfig]; 1 missing file[psfig].
149397 2013-03-02 00:12:48 /0208/cond-mat.0208334 2450000[\address, \thanksref, {ack}, {frontmatter}, {keyword}]; 1 missing file[LT23auth.cls].
149398 2013-03-02 00:12:45 /0208/cond-mat.0208354 150000[\address, \thanksref, {ack}, {frontmatter}, {keyword}]; 1 missing file[LT23auth.cls].
149399 2013-03-02 00:12:14 /0208/cond-mat.0208342 120000[\psfig]; 1 missing file[psfig].
149400 2013-03-02 00:12:04 /0208/cond-mat.0208322 050000[\@affiliation, \etal].
<<< >>>

[0] [200] [400] [600] [800] [1000] [1200] [1400] [1600] [1800] [2000] [2200] [2400] [2600] [2800] [3000] [3200] [3400] [3600] [3800] [4000] [4200] [4400] [4600] [4800] [5000] [5200] [5400] [5600] [5800] [6000] [6200] [6400] [6600] [6800] [7000] [7200] [7400] [7600] [7800] [8000] [8200] [8400] [8600] [8800] [9000] [9200] [9400] [9600] [9800] [10000] [10200] [10400] [10600] [10800] [11000] [11200] [11400] [11600] [11800] [12000] [12200] [12400] [12600] [12800] [13000] [13200] [13400] [13600] [13800] [14000] [14200] [14400] [14600] [14800] [15000] [15200] [15400] [15600] [15800] [16000] [16200] [16400] [16600] [16800] [17000] [17200] [17400] [17600] [17800] [18000] [18200] [18400] [18600] [18800] [19000] [19200] [19400] [19600] [19800] [20000] [20200] [20400] [20600] [20800] [21000] [21200] [21400] [21600] [21800] [22000] [22200] [22400] [22600] [22800] [23000] [23200] [23400] [23600] [23800] [24000] [24200] [24400] [24600] [24800] [25000] [25200] [25400] [25600] [25800] [26000] [26200] [26400] [26600] [26800] [27000] [27200] [27400] [27600] [27800] [28000] [28200] [28400] [28600] [28800] [29000] [29200] [29400] [29600] [29800] [30000] [30200] [30400] [30600] [30800] [31000] [31200] [31400] [31600] [31800] [32000] [32200] [32400] [32600] [32800] [33000] [33200] [33400] [33600] [33800] [34000] [34200] [34400] [34600] [34800] [35000] [35200] [35400] [35600] [35800] [36000] [36200] [36400] [36600] [36800] [37000] [37200] [37400] [37600] [37800] [38000] [38200] [38400] [38600] [38800] [39000] [39200] [39400] [39600] [39800] [40000] [40200] [40400] [40600] [40800] [41000] [41200] [41400] [41600] [41800] [42000] [42200] [42400] [42600] [42800] [43000] [43200] [43400] [43600] [43800] [44000] [44200] [44400] [44600] [44800] [45000] [45200] [45400] [45600] [45800] [46000] [46200] [46400] [46600] [46800] [47000] [47200] [47400] [47600] [47800] [48000] [48200] [48400] [48600] [48800] [49000] [49200] [49400] [49600] [49800] [50000] [50200] [50400] [50600] [50800] [51000] [51200] [51400] [51600] [51800] [52000] [52200] [52400] [52600] [52800] [53000] [53200] [53400] [53600] [53800] [54000] [54200] [54400] [54600] [54800] [55000] [55200] [55400] [55600] [55800] [56000] [56200] [56400] [56600] [56800] [57000] [57200] [57400] [57600] [57800] [58000] [58200] [58400] [58600] [58800] [59000] [59200] [59400] [59600] [59800] [60000] [60200] [60400] [60600] [60800] [61000] [61200] [61400] [61600] [61800] [62000] [62200] [62400] [62600] [62800] [63000] [63200] [63400] [63600] [63800] [64000] [64200] [64400] [64600] [64800] [65000] [65200] [65400] [65600] [65800] [66000] [66200] [66400] [66600] [66800] [67000] [67200] [67400] [67600] [67800] [68000] [68200] [68400] [68600] [68800] [69000] [69200] [69400] [69600] [69800] [70000] [70200] [70400] [70600] [70800] [71000] [71200] [71400] [71600] [71800] [72000] [72200] [72400] [72600] [72800] [73000] [73200] [73400] [73600] [73800] [74000] [74200] [74400] [74600] [74800] [75000] [75200] [75400] [75600] [75800] [76000] [76200] [76400] [76600] [76800] [77000] [77200] [77400] [77600] [77800] [78000] [78200] [78400] [78600] [78800] [79000] [79200] [79400] [79600] [79800] [80000] [80200] [80400] [80600] [80800] [81000] [81200] [81400] [81600] [81800] [82000] [82200] [82400] [82600] [82800] [83000] [83200] [83400] [83600] [83800] [84000] [84200] [84400] [84600] [84800] [85000] [85200] [85400] [85600] [85800] [86000] [86200] [86400] [86600] [86800] [87000] [87200] [87400] [87600] [87800] [88000] [88200] [88400] [88600] [88800] [89000] [89200] [89400] [89600] [89800] [90000] [90200] [90400] [90600] [90800] [91000] [91200] [91400] [91600] [91800] [92000] [92200] [92400] [92600] [92800] [93000] [93200] [93400] [93600] [93800] [94000] [94200] [94400] [94600] [94800] [95000] [95200] [95400] [95600] [95800] [96000] [96200] [96400] [96600] [96800] [97000] [97200] [97400] [97600] [97800] [98000] [98200] [98400] [98600] [98800] [99000] [99200] [99400] [99600] [99800] [100000] [100200] [100400] [100600] [100800] [101000] [101200] [101400] [101600] [101800] [102000] [102200] [102400] [102600] [102800] [103000] [103200] [103400] [103600] [103800] [104000] [104200] [104400] [104600] [104800] [105000] [105200] [105400] [105600] [105800] [106000] [106200] [106400] [106600] [106800] [107000] [107200] [107400] [107600] [107800] [108000] [108200] [108400] [108600] [108800] [109000] [109200] [109400] [109600] [109800] [110000] [110200] [110400] [110600] [110800] [111000] [111200] [111400] [111600] [111800] [112000] [112200] [112400] [112600] [112800] [113000] [113200] [113400] [113600] [113800] [114000] [114200] [114400] [114600] [114800] [115000] [115200] [115400] [115600] [115800] [116000] [116200] [116400] [116600] [116800] [117000] [117200] [117400] [117600] [117800] [118000] [118200] [118400] [118600] [118800] [119000] [119200] [119400] [119600] [119800] [120000] [120200] [120400] [120600] [120800] [121000] [121200] [121400] [121600] [121800] [122000] [122200] [122400] [122600] [122800] [123000] [123200] [123400] [123600] [123800] [124000] [124200] [124400] [124600] [124800] [125000] [125200] [125400] [125600] [125800] [126000] [126200] [126400] [126600] [126800] [127000] [127200] [127400] [127600] [127800] [128000] [128200] [128400] [128600] [128800] [129000] [129200] [129400] [129600] [129800] [130000] [130200] [130400] [130600] [130800] [131000] [131200] [131400] [131600] [131800] [132000] [132200] [132400] [132600] [132800] [133000] [133200] [133400] [133600] [133800] [134000] [134200] [134400] [134600] [134800] [135000] [135200] [135400] [135600] [135800] [136000] [136200] [136400] [136600] [136800] [137000] [137200] [137400] [137600] [137800] [138000] [138200] [138400] [138600] [138800] [139000] [139200] [139400] [139600] [139800] [140000] [140200] [140400] [140600] [140800] [141000] [141200] [141400] [141600] [141800] [142000] [142200] [142400] [142600] [142800] [143000] [143200] [143400] [143600] [143800] [144000] [144200] [144400] [144600] [144800] [145000] [145200] [145400] [145600] [145800] [146000] [146200] [146400] [146600] [146800] [147000] [147200] [147400] [147600] [147800] [148000] [148200] [148400] [148600] [148800] [149000] [149200] [149400] [149600] [149800] [150000] [150200] [150400] [150600] [150800] [151000] [151200] [151400] [151600] [151800] [152000] [152200] [152400] [152600] [152800] [153000] [153200] [153400] [153600] [153800] [154000] [154200] [154400] [154600] [154800] [155000] [155200] [155400] [155600] [155800] [156000] [156200] [156400] [156600] [156800] [157000] [157200] [157400] [157600] [157800] [158000] [158200] [158400] [158600] [158800] [159000] [159200] [159400] [159600] [159800] [160000] [160200] [160400] [160600] [160800] [161000] [161200] [161400] [161600] [161800] [162000] [162200] [162400] [162600] [162800] [163000] [163200] [163400] [163600] [163800] [164000] [164200] [164400] [164600]
 
  The service has been written by
Heinrich Stamerjohanns